Location: Le Hiès Ruisseau
(43.3000°N, 0.4500°W)
Time: 13:50:03
(UTC+00:00)

Cosmos 2263 Rocket - Pass Details

Date: 28 January 2023
Orbit: 825 x 847 km, 71.0° (Epoch: 19 March)

Event Time Altitude Azimuth Distance (km) Brightness Sun altitude
Rises 18:52:04 0° 332° (NNW) 3,373 5.6 -19.0°
Reaches altitude 10° 18:54:32 10° 329° (NNW) 2,435 4.9 -19.4°
Maximum altitude 19:00:01 61° 250° (WSW) 930 2.6 -20.4°
Drops below altitude 10° 19:05:28 10° 171° (S) 2,418 4.5 -21.4°
Sets 19:07:54 0° 168° (SSE) 3,348 5.2 -21.8°
